User: anonymous   Login
Location: ?????????
(38.0736°N, 23.2119°E)
Time: 15:53:35
(UTC+00:00)
Language:

Okean 2 Rocket - Orbit

View from above orbital plane
View from above orbital plane
View from above satellite
View from above satellite

Ground track
Ground track

The orbit data is extracted from the following two-line orbital elements,

1 20511U 90018B   24171.18807109  .00000564  00000-0  69532-4 0  9990
2 20511  82.5223  90.1452 0016698   4.7675 355.3695 14.81072721850601
Epoch (UTC): 19 June 2024 04:30:49
Eccentricity: 0.0016698
inclination: 82.5223°
perigee height: 614 km
apogee height: 637 km
right ascension of ascending node: 90.1452°
argument of perigee: 4.7675°
revolutions per day: 14.81072721
mean anomaly at epoch: 355.3695°
orbit number at epoch: 85060

The dashed part of the orbit path shows where the satellite is in the earth's shadow,  

DLR